DMSP 5D-2 F13 DEB, 42319

Orbit data source: Space-Track

DMSP 5D-2 F13 DEB, 42319 is space debris in SSO originally from a launch on Fri, 24 Mar 1995 UTC launched from the Air Force Western Test Range (AFWTR). Debris objects in space refer to the collection of defunct objects orbiting the Earth. Examples of debris include non-operational satellites, rocket bodies, and fragments generated from explosions, collisions, or faulty payload assembly.

Loading next visibility...
Identifier
42319, 1995-015JM
Orbit
SSO
Country
Flag of USUS
Related business
Manufacturer
Unknown
Mission
Spacecraft
Bus & Motor
Unknown
Mass
Unknown
Launch date (UTC)
1995-03-24 (31 years ago)
Launch vehicle
Unknown
Launch site
Air Force Western Test Range (AFWTR)
Object type
Payload
Rocket body
Debris
Shape & HBR
Unknown shape, 0.1 m
Radar Cross Section
Small (<0.1 m²)

Expand to show TLE details & history
Last TLE update: 2 days ago

TLE from 2 days ago
0 DMSP 5D-2 F13 DEB
1 42319U 95015JM  26171.39051527  .00005078  00000-0  16809-2 0  9994
2 42319  98.8743 218.2263 0020771 311.3972  48.5428 14.38249389578773
Epoch: 2026-06-20T09:22Z
TLE epoch observation values (Epoch: 2026-06-20T09:22:20.519Z)
Latitude
-0.00002°
Longitude
169.03499°
Altitude
757.416 km
Speed
7.481 km/s
True Right ascension
14h 32m 54s
True Declination
0° 00' 00"
Sunlit
Object was in full shadow at epoch
Visualization orbit readout
Latitude
Unknown
Longitude
Unknown
Altitude
Unknown
Speed
Unknown
Apparent Right ascension
Unknown
Apparent Declination
Unknown
Sunlit
N/A
Visualization observer readout
Local Sidereal Time
14:58:31
Azimuth
Unknown
Elevation
Unknown
Doppler factor
Unknown
Orbital elements
Apogee altitude
776.26 km
Perigee altitude
746.601 km
Semi-major axis
7,139.568 km
Eccentricity
0.00208
Inclination
98.8743°
RAAN
218.2263°
Arg. of periapsis
311.3972°
True anomaly
48.72149°
Mean anomaly
48.5428°
Eccentric anomaly
48.63211°
Mean motion
3.59779 °/min
Orbital period
100.06 mins
BSTAR
0.0016809
Loading maneuver chart data...
Computing Atmospheric mass density...

Documentation

Showing up to 5 results
|